Simultaneous Nadir Overpasses (SNOs) Predictions

Prediction of SNOs between METOP-B and NOAA-19 Satellite Orbit:

Table of predicted SNOs for the next 14.0 days since TLE Epoch: 11/22/2019
Index Date (METOP-B) Time (METOP-B) Lat,Lon (METOP-B) SZA (METOP-B ) Date (NOAA-19) Time (NOAA-19) Lat,Lon (NOAA-19) SZA (NOAA-19 ) Distance(km) Time Diff (sec)
1 11/25/2019 04:58:15 -79.63, -55.56 79.01 11/25/2019 04:57:06 -79.63, -55.47 79.02 1.94 69
2 11/25/2019 05:48:55 79.65, 111.94 101.03 11/25/2019 05:48:04 79.63, 111.87 100.99 3.24 51
3 11/25/2019 06:39:37 -79.62, -81.00 79.01 11/25/2019 06:39:07 -79.64, -81.05 79.01 2.45 30
4 11/25/2019 07:30:18 79.61, 86.22 100.98 11/25/2019 07:30:05 79.63, 86.29 101.00 3.11 13
5 11/25/2019 08:20:59 -79.61,-106.44 79.02 11/25/2019 08:21:07 -79.62,-106.34 79.00 2.44 8
6 11/25/2019 09:11:39 79.63, 61.06 101.02 11/25/2019 09:12:05 79.61, 61.00 101.01 2.10 26
7 11/25/2019 10:02:20 -79.63,-131.60 78.97 11/25/2019 10:03:07 -79.60,-131.63 78.99 3.17 47
8 11/25/2019 10:53:01 79.62, 35.62 101.02 11/25/2019 10:54:05 79.59, 35.71 101.02 3.25 64
9 12/06/2019 05:21:05 79.68, 119.14 102.76 12/06/2019 05:19:53 79.66, 119.03 102.72 3.24 72
10 12/06/2019 06:11:47 -79.65, -73.78 77.28 12/06/2019 06:10:53 -79.66, -73.77 77.28 1.49 54
11 12/06/2019 07:02:28 79.63, 93.42 102.71 12/06/2019 07:01:54 79.66, 93.45 102.73 3.37 34
12 12/06/2019 07:53:09 -79.64, -99.22 77.29 12/06/2019 07:52:53 -79.64, -99.07 77.28 3.15 16
13 12/06/2019 08:43:49 79.65, 68.26 102.75 12/06/2019 08:43:54 79.64, 68.16 102.73 2.28 5
14 12/06/2019 09:34:31 -79.62,-124.66 77.30 12/06/2019 09:34:54 -79.65,-124.65 77.27 2.78 23
15 12/06/2019 10:25:11 79.64, 42.82 102.74 12/06/2019 10:25:54 79.62, 42.88 102.73 2.36 43
16 12/06/2019 11:15:52 -79.64,-149.82 77.26 12/06/2019 11:16:54 -79.63,-149.95 77.26 2.96 62




NCC Satellite Simultaneous Nadir Overpasses (SNOs) Prediction Service
